Regional Weather Roundup
Issued by NWS

Home | Current Version | Previous Version | Graphics & Text | Print | Product List | Glossary On
Versions: 1 2 3 4 5 6 7 8 9 10 11 12 13 14 15 16 17 18 19 20 21 22 23 24 25 26 27 28 29 30 31 32 33 34 35 36 37 38 39 40 41 42 43 44 45 46 47 48 49 50
000
ASUS45 KSLC 222110
RWRUT

UTAH REGIONAL WEATHER ROUNDUP
NATIONAL WEATHER SERVICE SALT LAKE CITY UT
200 PM MST MON DEC 22 2014

UTZ001>011-023>025-222200-

NORTHERN UTAH

CITY           SKY/WX    TMP DP  RH WIND       PRES   REMARKS
BRIGHAM CITY   MOSUNNY   43  31  61 N14       29.99F
HILL AFB       PTSUNNY   40  32  73 N12G21    29.98F WCI  33
LOGAN          CLOUDY    39  32  76 NW9       29.98F WCI  33
OGDEN          CLOUDY    44  33  65 N15       29.98S
PROVO AIRPORT  NOT AVBL
SALT LAKE CITY PTSUNNY   43  36  76 N8        29.99S
VERNAL         PTSUNNY   39  26  59 N21G26    29.81F WCI  29
WENDOVER       MOSUNNY   52  32  46 N17G36    30.05S
HEBER CITY     CLOUDY    41  30  65 NW12      29.92S
WEST JORDAN    CLOUDY    45  39  81 NW26G32   29.99F

$$

UTZ012>022-026-027-222200-

SOUTHERN/CENTRAL UTAH

CITY           SKY/WX    TMP DP  RH WIND       PRES   REMARKS
BLANDING       CLOUDY    42  37  82 NW17G24   29.90F
BRYCE CANYON   CLOUDY    39  35  86 NW24G32   29.99R WCI  28
CEDAR CITY     CLOUDY    56  32  40 NW14      29.97S
DELTA          CLOUDY    43  40  88 NW17      30.04R
MILFORD        LGT RAIN  46  39  76 N24G31    30.03R
MOAB/CYNLANDS  SUNNY     51  34  52 W14       29.80F
PRICE          MOSUNNY   45  24  43 NW23G40   29.85F
ST GEORGE      MOCLDY    61  37  41 CALM      29.96F
KANAB            N/A     57  34  41 SW14      29.99F

$$

REGIONAL REPORTS     COLORADO/ARIZONA

CITY           SKY/WX    TMP DP  RH WIND       PRES   REMARKS
CRAIG, CO      MOSUNNY   36  23  59 NW18      29.77F WCI  26
GRAND JUNCTION CLOUDY    35  31  85 NW12      29.78S WCI  27
RIFLE          LGT SNOW  36  25  64 MISG      29.80R
MONTROSE       PTSUNNY   38  34  85 NW21      29.79R WCI  28
CORTEZ         SUNNY     43  38  82 W13       29.81F
PAGE, AZ       SUNNY     64  33  31 W13G26    29.85S
GRAND CANYON   SUNNY     51  33  50 NW13G24   30.00F
KINGMAN        SUNNY     66  37  34 N9        30.00F
FLAGSTAFF      SUNNY     52  29  41 VRB7G21   30.00F

$$

REGIONAL REPORTS    NEVADA/IDAHO/WYOMING

CITY           SKY/WX    TMP DP  RH WIND       PRES   REMARKS
LAS VEGAS, NV  SUNNY     72  36  26 W6        29.94F
ELY            LGT RAIN  45  37  73 N12G22    30.12R
ELKO           PTSUNNY   47  38  71 NW22G28   30.15S
POCATELLO, ID  MOSUNNY   44  35  70 W14       29.99F
BURLEY         LGT RAIN  42  32  67 W30G47    30.02R
EVANSTON, WY   PTSUNNY   35  26  69 NW18G24   29.91S WCI  24
ROCK SPRINGS   PTSUNNY   30  18  60 NW18      29.81S WCI  18
KEMMERER       LGT SNOW  30  23  74 NW28G39   29.88R VSB 3/4 WCI  16

$$



USA.gov is the U.S. government's official web portal to all federal, state and local government web resources and services.